Location: Navajo
(48.7922°N, 105.0603°W)
Time: 00:52:37
(UTC+00:00)

CUBEBUG 2 - Pass Details

Date: 08 July 2022
Orbit: 584 x 692 km, 97.7° (Epoch: 16 August)

Event Time Altitude Azimuth Distance (km) Brightness Sun altitude
Rises 09:48:40 0° 16° (NNE) 2,859 ? -10.0°
Reaches altitude 10° 09:50:51 10° 21° (NNE) 1,964 ? -9.8°
Maximum altitude 09:55:03 58° 101° (E) 728 ? -9.3°
Drops below altitude 10° 09:59:21 10° 180° (S) 2,009 ? -8.9°
Enters shadow 10:00:24 - 183° (S) 2,430 ? -8.8°
